Regional Weather Roundup
Issued by NWS

Home | Current Version | Previous Version | Graphics & Text | Print | Product List | Glossary On
Versions: 1 2 3 4 5 6 7 8 9 10 11 12 13 14 15 16 17 18 19 20 21 22 23 24 25 26 27 28 29 30 31 32 33 34 35 36 37 38 39 40 41 42 43 44 45 46 47 48 49 50
000
ASUS43 KIND 191009
RWRIN

WEATHER ROUNDUP FOR INDIANA
NATIONAL WEATHER SERVICE INDIANAPOLIS IN
500 AM EST FRI JAN 19 2018

NOTE: "FAIR" INDICATES FEW OR NO CLOUDS BELOW 12,000 FEET WITH NO
SIGNIFICANT WEATHER AND/OR OBSTRUCTIONS TO VISIBILITY.

* - STATION DOES NOT REPORT WEATHER SUCH AS PRECIPITATION OR FOG.

+ - STATION NOT QUALITY CONTROLLED BY THE NATIONAL WEATHER SERVICE.
    USE DATA WITH CAUTION...ESPECIALLY DEWPOINT AND RELATIVE
    HUMIDITY OBSERVATIONS.

INZ001>003-010>013-019-020-191100-
NORTHWEST INDIANA

CITY           SKY/WX    TMP DP  RH WIND       PRES   REMARKS
GARY /AIRPORT/ FAIR      28  19  66 SW8       29.97F WCI  20
KNOX *+        FAIR      23  18  80 SW12      30.00F WCI  12
LA PORTE +     FAIR      23  17  77 SW9       29.99S WCI  13
MICHIGAN CITY+ FAIR      27  18  69 S8        29.98S WCI  18
MONTICELLO +   FAIR      23  14  69 SW14      30.03F WCI  10
RENSSELAER +   FAIR      25  16  68 SW14      30.02F WCI  13
VALPARAISO     FAIR      23  16  74 SW9       29.98F WCI  13

$$

LMZ046-743>745-191100-
SOUTHERN LAKE MICHIGAN

STATION/POSITION TIME  TEMP    WIND        PRES    WAVE
                       AIR SEA DIR/SP/G            HT
                 (UTC) (F)     (DEG/KT/KT) (MB)    (FT)
BURNS HARBOR     0940   29     210/ 14/ 23 1015.2F
MICHIGAN CITY    0940   29     180/ 17/ 20   N/A

$$

INZ004-005-014>016-021>024-191100-
NORTH CENTRAL INDIANA

CITY           SKY/WX    TMP DP  RH WIND       PRES   REMARKS
GOSHEN         FAIR      23  14  68 SW14G23   29.99S WCI  11
LOGANSPORT +   FAIR      23  14  68 SW14      30.05F WCI  11
PERU/GRISSOM   FAIR      23  16  73 SW14      30.04S WCI  11
ROCHESTER +    FAIR      28  18  64 SW12      30.02F WCI  18
SOUTH BEND     FAIR      23  16  74 SW14      29.98F WCI  11
WARSAW +       FAIR      23  14  68 SW7       30.01S WCI  15

$$

INZ006>009-017-018-025>027-191100-
NORTHEAST INDIANA

CITY           SKY/WX    TMP DP  RH WIND       PRES   REMARKS
AUBURN +       FAIR      25  14  63 SW9G18    30.01S WCI  15
FORT WAYNE     FAIR      24  15  68 SW16      30.03S WCI  11
HUNTINGTON +   FAIR      23  13  65 SW12      30.04S WCI  11
KENDALLVILLE + FAIR      24  15  69 SW14      29.99R WCI  11

$$

INZ028-029-035-036-043>045-051>053-191100-
WEST CENTRAL INDIANA

CITY           SKY/WX    TMP DP  RH WIND       PRES   REMARKS
CRAWFORDSVL +  FAIR      20  14  76 MISG        N/A
GREENCASTLE +  FAIR      23  12  63 SW5       30.12S WCI  17
LAFAYETTE      FAIR      23  15  71 SW8G17    30.07F WCI  14
TERRE HAUTE    FAIR      19  10  68 S8        30.13F WCI   9

$$

INZ030>032-037>040-046>048-054>057-064-065-191100-
CENTRAL INDIANA

CITY           SKY/WX    TMP DP  RH WIND       PRES   REMARKS
FISHERS *+     FAIR      21  16  79 SW7       30.11S WCI  13
FRANKFORT +    FAIR      25  17  71 SW13      30.08S WCI  13
GREENWOOD *+   FAIR      21  12  67 S7        30.13F WCI  13
INDIANAPOLIS   FAIR      22  12  65 SW12      30.12S WCI  10
-EAGLE CREEK   FAIR      22  12  65 S8        30.10F WCI  12
MARION +       FAIR      21  14  73 SW13      30.07S WCI   8
MT COMFORT *+  FAIR      19  14  79 S7        30.11F WCI  10
SHELBYVILLE    FAIR      20   9  62 S9        30.13F WCI   9
ZIONSVILLE +   FAIR      22  13  67 SW13      30.09S WCI  10

$$

INZ033-034-041-042-049-050-058-059-191100-
EAST CENTRAL INDIANA

CITY           SKY/WX    TMP DP  RH WIND       PRES   REMARKS
MUNCIE         FAIR      23  11  60 SW13G22   30.07S WCI  11
RICHMOND +     FAIR      19  12  73 SW13      30.12R WCI   7

$$

INZ060-061-067>069-081>083-085>088-191100-
SOUTHWEST INDIANA

CITY           SKY/WX    TMP DP  RH WIND       PRES   REMARKS
EVANSVILLE     FAIR      21  13  71 SW8       30.22F WCI  11
HUNTINGBURG +  FAIR      18  11  74 S7        30.22S WCI   9
WASHINGTON +   FAIR      21  10  63 S9        30.19S WCI  11

$$

INZ062-063-066-070>080-084-089>092-191100-
SOUTH CENTRAL AND SOUTHEAST INDIANA

CITY           SKY/WX    TMP DP  RH WIND       PRES   REMARKS
BATESVILLE *+    N/A    N/A N/A N/A MISG        N/A
BEDFORD +      FAIR      21  10  63 S3        30.17S
BLOOMINGTON    FAIR      24  11  57 SW12      30.14F WCI  13
FRENCH LICK *+ FAIR      23  10  58 CALM      30.19S
MADISON *+     FAIR      19  12  73 S6        30.21S WCI  11
NORTH VERNON + FAIR      18   9  68 S7        30.18F WCI   8
SEYMOUR +      FAIR      21   9  58 S6        30.19S WCI  14

$$




USA.gov is the U.S. government's official web portal to all federal, state and local government web resources and services.